OK9CPU-9 Weather Reports


time (UTC)temp
C
wind
direction
speed
KPH
gust
KPH
rain 1hr
cm
rain 24hr
cm
rain mn
cm
humidity
%
barometer
mb
20260506221400 17 0.0 0.0 0.00 0.00 0.00 31 1006.1
20260506215718 17 0.0 0.0 0.00 0.00 0.00 31 1005.5
20260506214043 17 0.0 0.0 0.00 0.00 0.00 31 1005.4
20260506212408 18 0.0 0.0 0.00 0.00 0.00 32 1005.3
20260506205105 18 0.0 0.0 0.00 0.00 0.00 31 1005.3
20260506203422 18 0.0 0.0 0.00 0.00 0.00 32 1005.2
20260506192810 20 0.0 0.0 0.00 0.00 0.00 32 1004.8
20260506183817 21 0.0 0.0 0.00 0.00 0.00 31 1004.7
20260506180507 22 0.0 0.0 0.00 0.00 0.00 31 1004.0
20260506171522 24 0.0 0.0 0.00 0.00 0.00 30 1004.1
20260506162537 26 0.0 0.0 0.00 0.00 0.00 28 1004.4
20260506160902 26 0.0 0.0 0.00 0.00 0.00 28 1004.6
20260506151924 28 0.0 0.0 0.00 0.00 0.00 26 1005.1
20260506150242 30 0.0 0.0 0.00 0.00 0.00 25 1005.4
20260506144614 30 0.0 0.0 0.00 0.00 0.00 26 1005.5
20260506135629 30 0.0 0.0 0.00 0.00 0.00 25 1006.1
20260506133954 30 0.0 0.0 0.00 0.00 0.00 25 1006.1
20260506130644 31 0.0 0.0 0.00 0.00 0.00 25 1006.5
20260506123326 30 0.0 0.0 0.00 0.00 0.00 28 1007.1
20260506121659 32 0.0 0.0 0.00 0.00 0.00 25 1007.1
20260506120024 33 0.0 0.0 0.00 0.00 0.00 25 1007.1
20260506114349 35 0.0 0.0 0.00 0.00 0.00 23 1007.0
20260506111039 34 0.0 0.0 0.00 0.00 0.00 23 1007.3
20260506105356 35 0.0 0.0 0.00 0.00 0.00 23 1007.5
20260506102046 37 0.0 0.0 0.00 0.00 0.00 20 1007.8
20260506094744 39 0.0 0.0 0.00 0.00 0.00 19 1008.0
20260506093109 40 0.0 0.0 0.00 0.00 0.00 18 1007.9
20260506084123 39 0.0 0.0 0.00 0.00 0.00 17 1008.2
20260506082448 39 0.0 0.0 0.00 0.00 0.00 17 1008.4
20260506070153 35 0.0 0.0 0.00 0.00 0.00 17 1008.4
20260506061208 30 0.0 0.0 0.00 0.00 0.00 18 1008.2
20260506050548 21 0.0 0.0 0.00 0.00 0.00 21 1008.1
20260506044905 18 0.0 0.0 0.00 0.00 0.00 23 1007.9
20260506043238 16 0.0 0.0 0.00 0.00 0.00 24 1007.9
20260506041603 13 0.0 0.0 0.00 0.00 0.00 28 1007.7
20260506035920 11 0.0 0.0 0.00 0.00 0.00 30 1007.8
20260506034245 11 0.0 0.0 0.00 0.00 0.00 31 1007.5
20260506032610 11 0.0 0.0 0.00 0.00 0.00 31 1007.5
20260506030935 11 0.0 0.0 0.00 0.00 0.00 31 1007.3
20260506025300 12 0.0 0.0 0.00 0.00 0.00 31 1007.2
20260506023625 12 0.0 0.0 0.00 0.00 0.00 31 1007.2
20260506021957 13 0.0 0.0 0.00 0.00 0.00 30 1007.2
20260506020315 13 0.0 0.0 0.00 0.00 0.00 30 1007.0
20260506014648 14 0.0 0.0 0.00 0.00 0.00 30 1006.8
20260506013013 14 0.0 0.0 0.00 0.00 0.00 29 1006.5
20260506011330 14 0.0 0.0 0.00 0.00 0.00 30 1006.5
20260506005655 14 0.0 0.0 0.00 0.00 0.00 30 1006.4
20260506004020 14 0.0 0.0 0.00 0.00 0.00 30 1006.2
20260506002345 15 0.0 0.0 0.00 0.00 0.00 30 1006.2
20260506000710 15 0.0 0.0 0.00 0.00 0.00 30 1006.2
20260505235035 15 0.0 0.0 0.00 0.00 0.00 30 1005.9
20260505231725 16 0.0 0.0 0.00 0.00 0.00 30 1005.7